Tracking 28790 objects as of 19-Apr-2024
HD Live streaming from Space Station
objects crossing your sky now

CZ-4 DEB

Track CZ-4 DEB now!
10-day predictions


NORAD ID: 26150
Int'l Code: 1999-057AL
Perigee: 720.7 km
Apogee: 1,232.1 km
Inclination: 99.1 °
Period: 104.5 minutes
Semi major axis: 7347 km
RCS: 0.0099 m2 (small)
Launch date: October 14, 1999
Source: People's Republic of China (PRC)
Launch site: Taiyaun Space Center, China (TSC)

Note: This is SATELLITE DEBRIS
Your satellite tracking list
Your tracking list is empty




NASA's NSSDC Master Catalog

Two Line Element Set (TLE):
1 26150U 99057AL  24110.21061604  .00003048  00000-0  19422-2 0  9997
2 26150  99.1250 204.4936 0348056  25.8486   3.6909 13.78489329206592
Source of the keplerian elements: AFSPC